This demonstration page uses our WeatherBlox Daily Observations layout. Learn more.

Hourly Observations for February 3, 2020

Temp ( °F °C ) Dew Point ( °F °C ) Humidity (%) Winds ( mph kmh ) Pressure ( in mb ) Visibility ( mi km ) Precip ( " mm )
12:54 am 00:54 Clear 35 1.7 30 -1.1 82 82 NNE 17 28 29.71 1006 10 16.0934 0 0
1:54 am 01:54 Clear 34 1.1 30 -1.1 85 85 NE 14 22 29.7 1006 10 16.0934 0 0
2:54 am 02:54 Clear 33 0.6 30 -1.1 89 89 NE 15 24 29.69 1005 10 16.0934 0 0
3:54 am 03:54 Clear 33 0.6 28 -2.2 82 82 NE 15 24 29.67 1005 10 16.0934 0 0
4:36 am 04:36 Mostly Cloudy 33 0.6 29 -1.7 85 85 NNE 20 31 29.74 1007 10 16.0934 0 0
4:54 am 04:54 Cloudy 33 0.6 29 -1.7 85 85 NNE 22 35 29.67 1005 10 16.0934 0 0
5:54 am 05:54 Cloudy 32 0 27 -2.8 82 82 NNE 21 33 29.71 1006 10 16.0934 0 0
6:54 am 06:54 Cloudy 31 -0.6 27 -2.8 85 85 NE 24 39 29.72 1006 10 16.0934 0 0
7:31 am 07:31 Cloudy 32 0 27 -2.8 82 82 NNE 25 41 29.77 1008 10 16.0934 0 0
7:54 am 07:54 Cloudy 32 0 27 -2.8 82 82 NE 20 31 29.74 1007 10 16.0934 0 0
8:44 am 08:44 Cloudy 32 0 27 -2.8 82 82 NNE 22 35 29.79 1009 10 16.0934 0 0
8:54 am 08:54 Cloudy 32 0 27 -2.8 82 82 NNE 20 31 29.75 1007 10 16.0934 0 0
9:54 am 09:54 Cloudy 32 0 27 -2.8 82 82 NNE 21 33 29.76 1008 10 16.0934 0 0
10:54 am 10:54 Cloudy 32 0 26 -3.3 79 79 NNE 28 44 29.76 1008 10 16.0934 0 0
11:54 am 11:54 Cloudy 33 0.6 24 -4.4 70 70 N 24 39 29.78 1009 10 16.0934 0 0
12:54 pm 12:54 Cloudy 33 0.6 23 -5 66 66 N 22 35 29.77 1008 10 16.0934 0 0
1:09 pm 13:09 Cloudy 33 0.6 23 -5 66 66 NNE 25 41 29.8 1009 10 16.0934 0 0
1:54 pm 13:54 Cloudy 34 1.1 22 -5.6 61 61 NNE 24 39 29.78 1009 10 16.0934 0 0
2:54 pm 14:54 Cloudy 35 1.7 20 -6.7 54 54 NNE 28 44 29.8 1009 10 16.0934 0 0
3:54 pm 15:54 Cloudy 33 0.6 21 -6.1 61 61 N 25 41 29.83 1010 10 16.0934 0 0
4:54 pm 16:54 Cloudy 32 0 22 -5.6 66 66 N 25 41 29.87 1012 10 16.0934 0 0
5:54 pm 17:54 Cloudy 32 0 21 -6.1 64 64 NNE 21 33 29.88 1012 10 16.0934 0 0
6:54 pm 18:54 Cloudy 31 -0.6 20 -6.7 64 64 NNE 21 33 29.93 1013 10 16.0934 0 0
7:54 pm 19:54 Cloudy 30 -1.1 19 -7.2 64 64 NNE 22 35 29.96 1015 10 16.0934 0 0
8:54 pm 20:54 Cloudy 30 -1.1 19 -7.2 64 64 N 23 37 29.98 1015 10 16.0934 0 0
9:54 pm 21:54 Cloudy 29 -1.7 18 -7.8 63 63 N 20 31 30.01 1016 10 16.0934 0 0
10:54 pm 22:54 Cloudy 28 -2.2 16 -8.9 60 60 N 23 37 30.02 1017 10 16.0934 0 0
11:54 pm 23:54 Cloudy 28 -2.2 15 -9.4 58 58 N 22 35 30.05 1018 10 16.0934 0 0

Powered by AerisWeather